Cosmos 2263 Rocket - Orbit

View from above orbital plane
View from above orbital plane
View from above satellite
View from above satellite

Ground track
Ground track

The orbit data is extracted from the following two-line orbital elements,

1 22803U 93059B   13140.18396023 -.00000196  00000-0 -73992-4 0    85
2 22803 070.9891 146.7688 0015363 138.1029 222.1273 14.16621862 17401
Epoch (UTC): 20 May 2013 04:24:54
Eccentricity: 0.0015363
inclination: 70.9891°
perigee height: 826 km
apogee height: 848 km
right ascension of ascending node: 146.7688°
argument of perigee: 138.1029°
revolutions per day: 14.16621862
mean anomaly at epoch: 222.1273°
orbit number at epoch: 1740

The dashed part of the orbit path shows where the satellite is in the earth's shadow,  

Developed and maintained by Chris Peat, Heavens-Above GmbH. Please read the updated FAQ before sending e-mail. Imprint. DLR